Voltar ao catálogo

STARLINK-6118

AtivoComunicaçõesVLEO
NORAD 57106·PAYLOAD·🇺🇸 United States

Lançado Jun 23, 2023 de Cape Canaveral Space Force Station

Loading…

Próximas Passagens (próximas 24 horas)

TLE

AtualizadoSource: CelesTrak SupGP

Época: Sep 15, 2026, 02:23 UTC

1 57106C 23090F   26258.09979167  .00013749  00000+0  49795-3 0  2582
2 57106  43.0001 291.9203 0001276 263.7984 312.3609 15.27574603    15

Acompanhe STARLINK-6118 em tempo real com AllMySat

Download on the App Store